Garden City, KS

2:42 PM CDT on May 22, 2018 (GMT -0500)
Garden City Regional

Weather History for KGCK - January, 2013

Change the Weather History Date:

Friday, January 11, 2013

  Actual Average Record
Temperature  
Mean Temperature 43 °F 31 °F  
Max Temperature 60 °F 44 °F 72 °F (1986)
Min Temperature 26 °F 18 °F -16 °F (1962)
Degree Days  
Heating Degree Days 22 34  
Month to date heating degree days 429 374  
Since 1 July heating degree days 2399 2497  
Cooling Degree Days 0 0  
Month to date cooling degree days 0 0  
Year to date cooling degree days 0 0  
Moisture  
Dew Point 28 °F    
Average Humidity 61    
Maximum Humidity 100    
Minimum Humidity 21    
Precipitation  
Precipitation 0.00 in 0.01 in 0.10 in (1963)
Month to date precipitation 0.11 0.11  
Year to date precipitation 0.11 0.11  
Sea Level Pressure  
Sea Level Pressure 29.57 in    
Wind  
Wind Speed 17 mph (SW)    
Max Wind Speed 47 mph    
Max Gust Speed 60 mph    
Visibility 10 miles    
Events      
T = Trace of Precipitation, MM = Missing Value Source: NWS Daily Summary

Daily Weather History Graph

Daily Weather History Graph

Search for Another Location

Airport or City:

Astronomy

Jan. 11, 2013 Rise Set
Actual Time 7:58 AM CST 5:43 PM CST
Civil Twilight 7:29 AM CST 6:12 PM CST
Nautical Twilight 6:57 AM CST 6:45 PM CST
Astronomical Twilight 6:25 AM CST 7:16 PM CST
Moon 7:33 AM CST (1/11) 6:02 PM CST (1/11)
Length of Visible Light 10h 43m
Length of Day
9h 45m
Waning Crescent, 0% of the Moon is Illuminated
Jan 11
Waning Crescent
Jan 11
New
Jan 18
First Quarter
Jan 26
Full
Feb 3
Last Quarter

Hourly Weather History & Observations

Time (CST) Temp. Windchill Dew Point Humidity Pressure Visibility Wind Dir Wind Speed Gust Speed Precip Events Conditions
12:31 AM 37.4 °F 29.3 °F 37.4 °F 100% 29.58 in 7.0 mi South 12.7 mph - N/A   Scattered Clouds
12:40 AM 37.4 °F 29.3 °F 37.4 °F 100% 29.57 in 7.0 mi SSE 12.7 mph - N/A   Mostly Cloudy
12:54 AM 37.9 °F 30.5 °F 37.0 °F 97% 29.59 in 6.0 mi South 11.5 mph - N/A   Partly Cloudy
1:54 AM 39.0 °F 29.9 °F 37.0 °F 93% 29.57 in 10.0 mi South 17.3 mph - N/A   Clear
2:54 AM 39.0 °F 31.4 °F 36.0 °F 89% 29.54 in 10.0 mi South 12.7 mph - N/A   Clear
3:54 AM 41.0 °F 34.7 °F 33.1 °F 73% 29.52 in 10.0 mi SSW 10.4 mph - N/A   Clear
4:54 AM 37.9 °F 33.5 °F 33.1 °F 83% 29.52 in 10.0 mi South 5.8 mph - N/A   Clear
5:54 AM 37.4 °F 32.8 °F 32.0 °F 81% 29.49 in 10.0 mi South 5.8 mph - N/A   Clear
6:54 AM 37.0 °F 32.4 °F 32.0 °F 82% 29.51 in 10.0 mi South 5.8 mph - N/A   Clear
7:54 AM 37.0 °F 33.3 °F 32.0 °F 82% 29.51 in 10.0 mi SSE 4.6 mph - N/A   Clear
8:54 AM 39.9 °F 32.1 °F 32.0 °F 73% 29.50 in 10.0 mi South 13.8 mph - N/A   Clear
9:54 AM 46.0 °F 37.8 °F 32.0 °F 58% 29.48 in 10.0 mi SW 23.0 mph - N/A   Clear
10:54 AM 48.0 °F - 33.1 °F 56% 29.47 in 10.0 mi SSW 18.4 mph 27.6 mph N/A   Clear
11:54 AM 51.1 °F - 36.0 °F 56% 29.42 in 10.0 mi SSW 26.5 mph 33.4 mph N/A   Clear
12:54 PM 59.0 °F - 34.0 °F 39% 29.38 in 10.0 mi SW 31.1 mph 47.2 mph N/A   Clear
1:54 PM 60.1 °F - 28.0 °F 30% 29.37 in 10.0 mi SW 34.5 mph 54.1 mph N/A   Clear
2:54 PM 57.9 °F - 24.1 °F 27% 29.39 in 10.0 mi SW 39.1 mph 56.4 mph N/A   Clear
3:54 PM 55.0 °F - 23.0 °F 29% 29.44 in 10.0 mi SW 32.2 mph 46.0 mph N/A   Clear
4:54 PM 48.9 °F - 10.0 °F 21% 29.53 in 10.0 mi West 21.9 mph 42.6 mph N/A   Scattered Clouds
5:54 PM 43.0 °F 34.2 °F 10.0 °F 26% 29.61 in 10.0 mi West 20.7 mph 31.1 mph N/A   Clear
6:54 PM 39.9 °F 30.8 °F 10.9 °F 31% 29.68 in 10.0 mi West 18.4 mph 25.3 mph N/A   Clear
7:54 PM 32.0 °F 20.8 °F 26.1 °F 79% 29.77 in 10.0 mi NNW 17.3 mph - N/A   Clear
8:54 PM 28.9 °F 20.4 °F 24.1 °F 82% 29.81 in 10.0 mi NW 9.2 mph - N/A   Clear
9:54 PM 28.0 °F 18.6 °F 23.0 °F 81% 29.84 in 10.0 mi NW 10.4 mph - N/A   Clear
10:54 PM 26.1 °F 14.5 °F 21.9 °F 84% 29.86 in 10.0 mi NNW 13.8 mph - N/A   Clear
11:54 PM 26.1 °F 14.5 °F 21.9 °F 84% 29.88 in 10.0 mi NNW 13.8 mph - N/A   Clear